This is the latest recevied weather packets stored in our database for station/object KM4KBD. If no packets are shown the sender has not sent any weather packets the latest 10 day(s).
| Time | Temp. | Humidity | Pressure | Rain* | Wind** | Luminosity | Snow |
|---|---|---|---|---|---|---|---|
| 1777735584 | 12.78° C | 56% | 1023.9 hPa | 0 mm | - | 201 W/m² | - |
| 1777735281 | 13.33° C | 54% | 1023.8 hPa | 0 mm | - | 750 W/m² | - |
| 1777734978 | 11.67° C | 56% | 1023.6 hPa | 0 mm | - | 712 W/m² | - |
| 1777734675 | 11.11° C | 63% | 1024 hPa | 0 mm | - | 693 W/m² | - |
| 1777734373 | 11.67° C | 60% | 1023.6 hPa | 0 mm | - | 171 W/m² | - |
| 1777734069 | 12.22° C | 59% | 1023.7 hPa | 0 mm | - | 661 W/m² | - |
| 1777733765 | 11.67° C | 58% | 1023.9 hPa | 0 mm | - | 208 W/m² | - |
| 1777733462 | 12.78° C | 59% | 1023.8 hPa | 0 mm | - | 395 W/m² | - |
| 1777733158 | 12.22° C | 58% | 1023.8 hPa | 0 mm | - | 561 W/m² | - |
| 1777732855 | 11.67° C | 58% | 1023.4 hPa | 0 mm | - | 547 W/m² | - |
| 1777732551 | 12.22° C | 63% | 1023.3 hPa | 0 mm | - | 534 W/m² | - |
| 1777732250 | 12.78° C | 56% | 1023.6 hPa | 0 mm | - | 521 W/m² | - |
| 1777731946 | 12.22° C | 59% | 1023.4 hPa | 0 mm | - | 504 W/m² | - |
| 1777731643 | 12.22° C | 60% | 1023.7 hPa | 0 mm | - | 490 W/m² | - |
| 1777731340 | 11.67° C | 64% | 1023.8 hPa | 0 mm | - | 478 W/m² | - |
| 1777731038 | 12.22° C | 61% | 1023.5 hPa | 0 mm | - | 465 W/m² | - |
| 1777730737 | 11.11° C | 61% | 1023.7 hPa | 0 mm | - | 448 W/m² | - |
| 1777730432 | 11.11° C | 64% | 1023.7 hPa | 0 mm | - | 437 W/m² | - |
| 1777730128 | 11.11° C | 65% | 1023.6 hPa | 0 mm | - | 424 W/m² | - |
| 1777729825 | 10.56° C | 65% | 1023.4 hPa | 0 mm | - | 413 W/m² | - |
| 1777729522 | 10.56° C | 66% | 1023.5 hPa | 0 mm | - | 402 W/m² | - |
| 1777729219 | 10.56° C | 67% | 1023.5 hPa | 0 mm | - | 381 W/m² | - |
| 1777728915 | 10° C | 70% | 1023.6 hPa | 0 mm | - | 411 W/m² | - |
| 1777728612 | 10° C | 70% | 1023.4 hPa | 0 mm | - | 356 W/m² | - |
| 1777728309 | 10° C | 72% | 1023.2 hPa | 0 mm | - | 319 W/m² | - |
* Rain latest hour (hover to see other rain measurements)
** Current wind speed in m/s (hover to see current wind gust speed)